EHI
2 3 2 1 0 1 2 3 3 3 3 3 3 3 2 1 0 0 0 0 0 0 0 0 0 0 0 0 0 0 0 0 0 0 1 1 1 1 2 2 1 1 1
3 3 2 1 0 1 2 3 3 3 2 2 2 2 1 0 0 0 0 0 0 0 0 0 0 0 0 0 0 0 0 1 1 1 0 0 1 1 2 2 1 1 1
2 2 1 0 0 0 1 3 3 3 1 0 1 1 0 0 0 0 0 0 0 0 0 0 0 0 0 0 0 0 1 2 2 2 1 0 0 1 2 2 1 0 1
1 1 0 0 0 0 1 2 3 2 1 0 0 0 0 0 0 0 0 0 0 0 0 0 0 0 0 0 0 0 1 2 3 2 1 0 0 0 2 3 2 1 0
0 0 0 0 0 0 0 1 2 2 1 0 0 0 0 0 1 0 0 0 0 0 0 0 0 0 0 0 0 0 0 1 2 1 0 0 0 0 1 2 2 1 0
0 0 0 0 0 0 0 0 1 1 0 0 0 0 0 0 0 0 0 0 0 0 0 0 0 0 0 0 0 0 0 1 1 0 0 0 0 0 1 1 1 0 0
0 0 0 0 0 0 0 0 0 0 0 0 0 0 0 0 0 0 0 0 0 0 0 0 0 0 0 0 0 0 0 0 0 0 0 0 0 0 0 0 1 0 0
0 0 0 0 0 0 0 0 0 0 0 0 0 0 0 0 0 0 0 0 0 0 0 0 0 0 0 0 0 0 0 0 0 0 0 0 0 0 0 0 0 0 0
0 0 0 0 0 0 0 0 0 0 0 0 0 0 0 0 0 0 0 0 0 0 0 0 0 0 0 0 0 0 0 0 0 0 0 0 0 0 0 0 0 0 0
0 0 1 1 0 0 0 0 0 0 0 0 0 0 0 0 0 0 0 0 0 0 0 0 0 0 0 0 0 0 0 0 0 0 0 0 0 0 0 0 0 0 0
0 0 1 2 1 0 0 0 0 0 0 0 0 0 0 0 0 0 0 0 0 0 0 0 0 0 0 0 0 0 0 0 0 0 0 1 1 1 2 1 1 1 1
0 0 1 2 1 0 0 0 0 0 0 0 0 0 0 0 0 0 0 0 0 0 0 0 0 0 0 0 0 0 0 0 0 0 1 3 3 2 2 2 2 2 2
0 0 1 1 1 0 0 0 0 0 0 0 0 0 0 0 0 0 0 0 0 0 0 0 0 0 0 0 0 0 0 0 0 1 1 2 2 1 1 1 2 2 2
0 0 0 0 0 0 0 0 0 0 0 0 0 0 0 0 0 0 0 0 0 0 0 0 0 0 0 0 0 0 0 0 0 0 0 1 1 1 2 1 1 1 2
0 0 0 0 0 0 0 0 0 0 0 0 0 0 0 0 0 0 0 0 0 0 0 0 0 0 0 0 0 0 0 0 0 0 0 0 1 2 2 2 2 1 2
0 0 0 0 0 0 0 0 0 0 0 0 0 0 0 0 0 0 0 0 0 0 0 0 0 0 0 0 0 0 0 0 0 0 0 0 1 1 1 2 2 2 2
0 0 0 0 0 0 0 0 0 0 0 0 0 0 0 0 0 0 0 0 0 0 0 0 0 0 0 0 0 0 0 0 0 0 0 0 0 0 0 1 2 2 2
0 0 0 0 0 0 0 0 0 0 0 0 0 0 0 0 0 0 0 0 0 0 0 0 0 0 0 0 0 0 0 0 0 0 0 0 0 0 0 0 1 2 2
0 0 0 0 0 0 0 0 0 0 0 0 0 0 0 0 0 0 0 0 0 0 0 0 0 0 0 0 0 0 0 0 0 0 0 0 0 0 0 0 0 1 1
0 0 0 0 0 0 0 0 0 0 0 0 0 0 0 0 0 0 0 0 0 0 0 0 0 0 0 0 0 0 0 0 0 0 0 0 0 0 0 0 0 0 0
0 0 0 0 0 0 0 0 0 0 0 0 0 0 0 0 0 0 0 0 0 0 0 0 0 0 0 0 0 0 0 0 0 0 0 0 0 0 0 0 0 0 0
0 0 0 0 0 0 0 0 0 0 0 0 0 0 0 0 0 0 0 0 0 0 0 0 0 0 0 0 0 0 0 0 0 0 0 0 0 0 0 0 0 0 0
0 0 0 0 0 0 0 0 0 0 0 0 0 0 0 0 0 0 0 0 0 0 0 0 0 0 0 0 0 0 0 0 0 0 0 0 0 0 0 0 0 0 0
0 0 0 0 1 1 0 0 0 0 0 0 0 0 0 0 0 0 0 0 0 0 0 0 0 0 0 0 0 0 0 0 0 0 0 0 0 0 0 0 0 0 0
0 0 0 0 1 1 0 0 0 0 0 0 0 0 0 0 0 0 0 0 0 0 0 0 0 0 0 0 0 0 0 0 0 0 0 0 0 0 0 0 0 0 0
0 0 0 0 1 1 0 0 0 0 0 0 0 0 0 0 0 0 0 0 0 0 0 0 0 0 0 0 0 0 0 0 0 0 0 0 0 0 0 0 0 0 0
Wind_Speed
1 2 1 3 4 5 5 6 7 7 8 8 8 8 8 8 8 8 8 8 8 8 8 8 8 8 8 7 6 6 6 6 6 6 6 5 5 6 6 6 6 4 6
1 1 2 3 5 5 5 6 7 7 7 8 8 8 8 8 8 8 8 7 8 8 8 8 8 8 8 7 7 7 7 7 7 7 6 5 5 5 6 6 6 3 5
1 1 2 4 5 5 6 6 6 7 7 7 7 7 8 8 8 8 7 7 8 8 8 8 8 8 8 7 7 7 7 7 7 7 6 4 3 5 5 5 5 5 5
2 1 2 4 6 6 5 6 6 7 7 7 7 7 7 8 7 7 7 7 8 8 8 8 8 8 8 8 7 7 7 7 7 7 4 3 3 5 6 5 5 5 5
2 2 2 5 6 6 6 5 6 7 7 7 7 7 7 7 7 7 7 7 7 7 8 8 8 8 8 8 8 7 7 7 8 6 4 3 3 4 6 5 5 5 5
3 2 2 5 6 6 6 5 6 6 6 6 6 7 7 7 7 7 7 7 7 7 7 7 7 8 8 8 8 8 8 8 6 4 3 3 2 4 6 6 5 5 5
3 2 2 5 6 6 6 6 6 6 6 6 6 6 6 6 7 7 7 7 7 7 7 7 7 8 8 8 8 8 8 7 5 3 3 2 2 5 5 5 5 5 5
3 2 2 4 5 5 5 6 5 5 5 5 6 6 6 6 6 7 7 7 7 7 7 7 7 7 8 8 8 8 8 7 5 4 3 2 3 4 5 5 5 5 5
3 3 3 3 3 4 5 5 5 5 5 5 6 6 5 5 6 6 6 7 7 7 7 7 7 7 7 8 8 7 8 9 5 3 3 2 4 5 6 6 6 6 6
3 3 3 3 3 3 3 4 4 5 5 6 5 6 5 6 6 6 6 6 6 7 7 8 8 8 8 8 8 8 8 7 4 3 2 2 5 6 6 7 7 7 6
2 2 2 2 3 2 2 3 4 5 5 5 5 6 6 4 4 4 5 6 6 7 7 8 8 9 9 9 10 9 7 3 3 3 2 4 6 6 7 7 7 7 7
1 0 1 1 1 2 2 3 2 3 3 4 3 3 3 3 3 4 5 6 7 7 7 8 9 9 7 4 7 8 4 4 3 2 3 7 7 7 7 7 7 7 7
2 1 1 1 1 1 1 2 2 2 2 3 3 3 2 2 2 3 2 3 4 5 4 5 6 4 4 4 4 4 4 3 3 3 4 8 8 8 8 8 7 7 7
2 2 1 1 1 1 1 1 1 1 1 1 2 2 2 2 2 2 2 2 2 2 3 3 3 4 4 4 4 4 5 3 3 2 3 8 8 8 8 8 8 8 7
2 2 1 1 1 1 1 1 1 1 1 1 1 2 2 2 2 2 2 2 2 2 2 2 2 3 3 4 4 4 4 4 4 3 3 7 8 8 8 8 8 7 8
3 3 2 2 2 2 1 1 1 1 1 1 1 2 2 2 2 2 2 2 2 2 2 2 2 2 2 2 3 4 3 3 4 4 3 5 8 8 8 8 8 8 8
3 3 3 3 2 2 1 1 1 1 1 1 1 2 2 2 2 2 2 2 2 2 2 2 2 2 2 3 3 3 3 3 3 4 4 3 4 7 8 8 8 8 8
3 3 2 2 3 2 2 1 1 1 2 1 1 2 2 2 2 2 2 1 1 2 2 2 2 2 2 3 3 3 2 2 3 3 3 3 3 4 6 8 8 8 7
4 4 3 2 3 3 2 1 2 2 2 1 2 2 2 2 2 2 2 1 2 2 2 2 2 2 2 2 2 2 3 3 2 2 3 3 3 3 3 5 7 7 7
3 4 3 2 3 3 2 2 2 2 2 2 1 2 2 2 3 3 2 2 2 2 2 2 2 2 2 1 3 3 3 2 2 2 2 2 2 2 3 3 3 4 6
3 3 3 3 2 3 2 1 1 1 1 1 1 1 2 2 2 2 2 2 2 2 2 2 2 2 2 1 2 2 3 3 2 2 2 2 2 2 2 2 2 2 2
4 4 4 4 3 3 2 2 1 1 1 1 1 1 1 1 1 2 2 2 1 2 2 2 2 1 1 2 2 2 2 3 3 3 2 2 2 2 2 2 2 2 1
5 5 5 4 4 3 3 2 2 2 2 1 1 1 1 1 1 1 1 1 1 1 1 1 1 2 1 1 1 2 2 1 2 3 2 2 2 2 2 1 1 1 1
6 5 5 5 4 4 4 3 3 2 1 1 1 0 0 1 1 1 1 1 1 1 1 1 1 1 2 1 0 1 1 2 2 1 3 2 2 2 2 2 1 1 0
4 4 4 4 4 3 4 4 4 2 2 1 1 1 0 0 0 1 1 1 1 1 1 1 1 1 1 1 1 1 1 1 1 2 1 3 2 2 1 2 1 1 0
3 3 3 4 3 3 4 3 4 4 3 2 1 1 1 0 1 1 1 1 1 1 2 2 2 2 1 1 1 1 2 2 2 2 2 1 2 2 2 2 1 1 1
Wind_Direction
268 258 240 110 100 93 89 85 84 86 87 85 86 89 88 86 84 83 84 83 83 79 75 74 73 74 75 77 84 84 84 85 78 75 71 69 79 103 111 110 107 103 109
199 216 145 120 108 101 97 94 88 88 88 86 86 88 89 88 88 85 83 84 83 78 73 69 71 73 72 71 78 80 77 74 74 72 67 60 72 97 106 107 110 109 115
133 141 125 117 109 104 99 96 93 92 88 86 87 88 89 88 88 86 83 82 81 78 72 67 66 67 68 69 72 75 73 67 69 69 63 42 52 92 103 106 109 111 119
134 113 111 117 113 107 101 99 98 96 90 87 84 83 85 85 85 86 83 82 79 76 74 69 65 66 64 64 67 69 71 67 66 65 52 39 44 88 98 99 99 102 109
104 93 104 117 114 108 104 100 102 99 92 88 85 82 80 79 79 80 81 81 79 75 72 69 68 66 64 63 63 67 70 68 62 57 48 40 35 78 91 91 91 94 99
90 80 101 113 109 105 105 102 102 101 97 93 90 85 80 77 76 74 77 77 77 76 74 70 67 63 62 60 60 64 68 68 59 50 49 43 41 75 82 79 78 83 92
92 71 80 104 104 101 100 99 96 97 96 95 92 87 80 76 74 72 75 76 76 74 72 68 66 62 59 58 58 65 66 65 60 47 42 39 57 81 83 79 77 77 81
101 75 67 89 96 99 96 95 93 94 94 92 89 83 79 76 74 70 71 71 72 69 65 62 66 66 63 61 61 65 64 61 58 49 38 34 70 81 86 81 80 81 83
86 76 56 54 65 79 88 88 86 87 87 83 81 77 73 73 71 71 69 68 65 64 62 61 63 64 65 65 64 66 66 62 53 39 45 41 63 73 81 82 83 85 85
68 66 59 51 50 49 44 61 77 77 78 75 73 72 66 61 59 57 56 56 58 60 61 60 60 63 62 65 67 68 68 60 43 38 26 46 66 72 78 82 80 80 85
69 49 57 62 52 45 38 44 51 58 58 57 51 52 49 40 39 42 48 53 53 55 59 59 61 60 59 58 64 66 59 43 39 33 21 53 67 72 75 76 76 75 75
147 101 70 80 65 45 43 45 36 41 40 39 40 41 41 40 36 38 41 52 51 51 57 60 62 56 55 44 51 55 44 39 37 24 33 55 65 69 72 74 75 76 75
178 158 154 144 85 70 51 47 39 41 37 32 37 44 49 46 37 37 37 40 38 49 48 49 50 44 46 47 47 46 40 38 29 19 29 51 62 68 71 70 71 73 74
154 187 186 143 113 89 73 56 51 48 45 34 29 45 64 58 46 45 44 37 41 45 50 47 53 49 47 50 58 54 44 37 26 17 22 44 55 64 68 69 69 70 73
166 192 187 161 142 122 93 60 66 53 56 39 39 45 70 81 70 60 53 48 46 47 54 54 57 59 51 51 57 62 51 39 30 24 21 38 47 56 63 64 67 71 76
189 195 182 166 161 133 131 122 88 80 71 58 51 46 68 87 86 76 64 52 47 50 58 66 63 66 55 55 54 56 56 43 33 27 25 24 33 43 51 58 64 72 75
189 183 177 169 138 137 144 142 104 94 90 78 61 54 67 89 96 91 79 59 45 53 64 67 60 61 64 60 50 46 51 46 40 29 28 26 20 32 42 49 58 67 71
164 164 179 161 135 137 129 120 99 93 91 80 70 65 70 80 96 100 90 67 54 63 70 75 66 65 58 57 48 33 30 30 34 33 35 30 25 22 27 40 47 55 62
166 160 160 143 136 137 126 109 99 89 78 75 75 74 78 81 87 93 87 69 64 66 64 78 64 73 77 67 62 44 28 22 14 26 32 28 29 29 25 29 39 48 56
165 158 153 137 128 127 112 88 72 61 56 62 76 75 81 79 81 85 83 72 74 75 62 66 78 62 69 69 67 48 23 12 19 22 11 18 23 25 31 34 30 32 51
153 151 150 144 141 131 123 124 112 95 62 56 67 83 86 89 92 93 85 76 73 84 86 86 85 74 55 47 66 29 5 13 27 13 3 15 12 6 26 36 36 26 28
173 170 165 165 159 159 158 153 143 136 119 105 60 65 75 101 110 107 101 101 90 89 84 75 85 91 50 43 94 82 13 352 354 4 3 10 351 358 9 18 34 32 30
181 183 180 178 171 166 147 114 88 70 51 39 37 41 39 119 129 116 125 120 107 107 126 131 114 122 135 26 65 129 135 228 310 334 357 5 0 0 342 350 19 18 36
195 186 177 174 167 160 146 139 140 146 164 203 195 198 57 131 158 144 149 147 142 138 151 188 134 137 140 145 29 59 139 158 151 323 330 343 352 353 336 331 327 322 19
183 175 175 167 168 165 158 159 151 151 167 157 111 107 91 273 212 190 184 179 181 187 195 192 148 171 169 165 163 146 99 69 128 153 277 319 336 321 308 302 296 292 269
167 164 162 164 174 172 166 163 164 167 162 144 147 178 214 276 273 241 217 213 213 214 213 211 198 191 193 184 181 178 168 169 180 167 194 259 295 303 309 309 292 275 256